Tracking 30107 objects as of 18-Jan-2025
HD Live streaming from Space Station
objects crossing your sky now

NINGXIA-1 2

Track NINGXIA-1 2 now!
10-day predictions


NORAD ID: 44780
Int'l Code: 2019-076B
Perigee: 888.1 km
Apogee: 899.9 km
Inclination: 45.0 °
Period: 102.7 minutes
Semi major axis: 7264 km
RCS: Unknown
Launch date: November 13, 2019
Source: People's Republic of China (PRC)
Launch site: Taiyaun Space Center, China (TSC)
Your satellite tracking list
Your tracking list is empty




NASA's NSSDC Master Catalog

Two Line Element Set (TLE):
1 44780U 19076B   25018.16116597  .00000062  00000-0  12450-3 0  9991
2 44780  45.0108 321.3912 0008074 236.4980 123.5083 14.02004469265583
Source of the keplerian elements: AFSPC